Starlink 34334

operational
NORAD ID: 64273 Int'l Des: 2025-120 Owner: SPXS Country: US Constellation: starlink
LEOCIRCULAR

Starlink 34334について

説明を読み込み中...

リアルタイム位置

3D地球を読み込み中...

次回通過

高度履歴

Altitude vs Time

uPlot chart will show altitude changes over time

軌道要素

1 64273U 25120T 25261.01752822 .00029842 00000-0 10143-2 0 9991
2 64273 53.1612 198.4280 0001952 80.2870 279.8351 15.30241212 17482
Epoch: Sep 18, 2025 • Age: 26 hours

現在のステータス

高度 479.3 km
速度 7.63 km/s
衛星直下点 48.85°N, 72.92°W
打ち上げ日 Jun 4, 2025
運用期間 0.2 years
タイプ internet

技術仕様

分類 Payload
質量 575.00 kg
乾燥質量 530.00 kg
総質量 575.00 kg
長さ 0.30 m
直径 4.10 m
スパン 29.00 m
形状 Box + pan
製造者 SPXS
バスタイプ Starlink V2MO
フェーズステータス In Orbit
所有者/国 SPXS/US

大規模コンステレーション

Loading constellations...